Home > Weather > Christchurch > Past weeks

Flag for New Zealand Past Weather in Christchurch, New Zealand — Yesterday and Last 2 Weeks

Now
57 °F

Refreshingly cool.


Feels Like: 54 °F
Forecast: 47 / 60 °F
Wind: 13 mph from North

Location: Christchurch Airport

Current Time: Jul 27, 2016 at 5:49:03 PM

Latest Report: Jul 27, 2016 at 5:00 PM


Visibility: N/A

Pressure: 29.65 "Hg

Humidity: 33%

Dew Point: 28 °F

Location of ChristchurchLocation

Past Weather in Christchurch — Graph

°F

Christchurch Temperature Yesterday

Maximum temperature yesterday: 52 °F (at 1:00 PM)
Minimum temperature yesterday: 27 °F (at 4:30 AM)
Average temperature yesterday: 38 °F

High & Low Weather Summary for the Past Weeks

 TemperatureHumidityPressure
High70 °F (Jul 23, 2:30 PM)100% (Jul 12, 8:00 PM)30.04 "Hg (Jul 12, 8:00 PM)
Low27 °F (Jul 26, 4:30 AM)27% (Jul 27, 3:00 PM)28.68 "Hg (Jul 24, 4:00 AM)
Average45 °F74%29.55 "Hg
* Reported Jul 12 4:00 PM — Jul 27 4:30 PM, Christchurch, Weather by CustomWeather, © 2016

Note: Actual official high and low records may vary slightly from our data, if they occured in-between our weather recording intervals... More about our weather records

Advertising

Christchurch Weather History for the Previous 24 Hours

Scroll right to see more
 ConditionsComfort  
Time TempWeatherWind HumidityBarometerVisibility
4:30 PM
Wed, Jul 27
59 °FRefreshingly cool.9 mph31%29.65 "HgN/A
4:00 PM61 °FRefreshingly cool.8 mph27%29.65 "HgN/A
3:30 PM61 °FRefreshingly cool.7 mph27%29.65 "HgN/A
3:00 PM61 °FRefreshingly cool.12 mph27%29.65 "HgN/A
2:30 PM63 °FMild.9 mph32%29.65 "HgN/A
2:00 PM63 °FMild.8 mph37%29.68 "HgN/A
1:30 PM61 °FRefreshingly cool.3 mph39%29.68 "HgN/A
1:00 PM59 °FRefreshingly cool.5 mph42%29.71 "HgN/A
12:30 PM59 °FRefreshingly cool.2 mph45%29.71 "HgN/A
12:00 PM55 °FRefreshingly cool.3 mph51%29.71 "HgN/A
11:30 AM54 °FCool.3 mph58%29.74 "HgN/A
11:00 AM54 °FCool.1 mph54%29.74 "HgN/A
10:30 AM50 °FCool.2 mph62%29.74 "HgN/A
10:00 AM46 °FCool.2 mph76%29.71 "HgN/A
9:30 AM43 °FQuite cool.1 mph81%29.71 "HgN/A
9:00 AM39 °FChilly.No wind81%29.71 "HgN/A
8:30 AM34 °FChilly.2 mph87%29.71 "HgN/A
8:00 AM36 °FChilly.3 mph81%29.68 "HgN/A
7:30 AM36 °FChilly.3 mph87%29.68 "HgN/A
7:00 AM37 °FChilly.3 mph81%29.65 "HgN/A
6:30 AM37 °FChilly.3 mph81%29.65 "HgN/A
6:00 AM39 °FPassing clouds.2 mph75%29.62 "HgN/A
5:30 AM37 °FPassing clouds.5 mph81%29.59 "HgN/A
5:00 AM37 °FPassing clouds.2 mph81%29.62 "HgN/A
4:30 AM37 °FChilly.2 mph81%29.59 "HgN/A
4:00 AM36 °FChilly.3 mph87%29.59 "HgN/A
3:30 AM37 °FChilly.5 mph81%29.59 "HgN/A
3:00 AM36 °FChilly.3 mph87%29.59 "HgN/A
2:30 AM34 °FChilly.6 mph93%29.59 "HgN/A
2:00 AM32 °FChilly.3 mph100%29.59 "HgN/A
1:30 AM32 °FChilly.2 mph100%29.62 "HgN/A
1:00 AM32 °FChilly.2 mph100%29.62 "Hg6 mi
12:30 AM32 °FChilly.2 mph93%29.65 "HgN/A
12:00 AM30 °FChilly.3 mph100%29.65 "Hg4 mi
11:30 PM
Tue, Jul 26
32 °FChilly.1 mph100%29.65 "HgN/A
11:00 PM34 °FChilly.3 mph93%29.68 "HgN/A
10:30 PM37 °FChilly.2 mph87%29.71 "HgN/A
10:00 PM37 °FChilly.3 mph87%29.71 "HgN/A
9:30 PM37 °FChilly.6 mph87%29.71 "HgN/A
9:00 PM39 °FChilly.6 mph87%29.71 "HgN/A
8:30 PM39 °FChilly.5 mph93%29.71 "HgN/A
8:00 PM39 °FChilly.6 mph93%29.71 "HgN/A
7:30 PM43 °FQuite cool.9 mph87%29.74 "HgN/A
7:00 PM45 °FQuite cool.10 mph81%29.71 "HgN/A
6:30 PM43 °FQuite cool.8 mph87%29.74 "HgN/A
6:00 PM45 °FQuite cool.9 mph76%29.74 "HgN/A
5:30 PM46 °FCool.10 mph66%29.74 "HgN/A
5:00 PM46 °FCool.10 mph66%29.74 "HgN/A
Weather by CustomWeather, © 2016

See weather overviewHow to use our weather pages